Weather Data

Pearl Creek Farm: 8878 N Farm Road 75, Walnut Grove MO 65770

<== Previous Day (Monday 21 Sep 2015) | Next Day (Wednesday 23 Sep 2015) ==>

Summary Precipitation Data For Tuesday 22 September 2015

ElementValueUnits
Precipitation0"
Notes(none)
SourcePearl Creek Farm

Summary Temperature Data For Tuesday 22 September 2015

ElementValueUnits
High Temperature82 oF
Low Temperature63 oF
Average Temperature71 oF
High Humidity90 %
Low Humidity67 %
Average Humidity81 %
SourcePearl Creek Farm

Detail Temperature Data For Tuesday 22 September 2015

Date / TimeTemp (F)RH (%)Dew Pt (F)Report Date / TimeSource
2015-09-22 00:00:00 66 88 62.3 2015-11-18 13:17:03 Pearl Creek Farm
2015-09-22 00:30:00 65 88 61.4 2015-11-18 13:17:03 Pearl Creek Farm
2015-09-22 01:00:00 66 87 61.9 2015-11-18 13:17:03 Pearl Creek Farm
2015-09-22 01:30:00 65 87 60.9 2015-11-18 13:17:03 Pearl Creek Farm
2015-09-22 02:00:00 65 87 60.9 2015-11-18 13:17:03 Pearl Creek Farm
2015-09-22 02:30:00 65 87 60.9 2015-11-18 13:17:03 Pearl Creek Farm
2015-09-22 03:00:00 64 86 59.7 2015-11-18 13:17:03 Pearl Creek Farm
2015-09-22 03:30:00 64 86 59.7 2015-11-18 13:17:03 Pearl Creek Farm
2015-09-22 04:00:00 63 86 58.7 2015-11-18 13:17:03 Pearl Creek Farm
2015-09-22 04:30:00 63 87 58.9 2015-11-18 13:17:03 Pearl Creek Farm
2015-09-22 05:00:00 63 88 59.2 2015-11-18 13:17:03 Pearl Creek Farm
2015-09-22 05:30:00 63 89 59.5 2015-11-18 13:17:03 Pearl Creek Farm
2015-09-22 06:00:00 63 90 59.9 2015-11-18 13:17:03 Pearl Creek Farm
2015-09-22 06:30:00 64 89 60.5 2015-11-18 13:17:03 Pearl Creek Farm
2015-09-22 07:00:00 64 86 59.6 2015-11-18 13:17:03 Pearl Creek Farm
2015-09-22 07:30:00 64 88 60.2 2015-11-18 13:17:03 Pearl Creek Farm
2015-09-22 08:00:00 65 87 60.9 2015-11-18 13:17:03 Pearl Creek Farm
2015-09-22 08:30:00 65 86 60.5 2015-11-18 13:17:03 Pearl Creek Farm
2015-09-22 09:00:00 66 86 61.7 2015-11-18 13:17:03 Pearl Creek Farm
2015-09-22 09:30:00 68 82 62.1 2015-11-18 13:17:03 Pearl Creek Farm
2015-09-22 10:00:00 70 81 63.9 2015-11-18 13:17:03 Pearl Creek Farm
2015-09-22 10:30:00 72 78 64.8 2015-11-18 13:17:03 Pearl Creek Farm
2015-09-22 11:00:00 74 78 66.5 2015-11-18 13:17:03 Pearl Creek Farm
2015-09-22 11:30:00 76 76 67.7 2015-11-18 13:17:03 Pearl Creek Farm
2015-09-22 12:00:00 77 72 67.3 2015-11-18 13:17:03 Pearl Creek Farm
2015-09-22 12:30:00 78 72 68.0 2015-11-18 13:17:03 Pearl Creek Farm
2015-09-22 13:00:00 80 69 68.7 2015-11-18 13:17:03 Pearl Creek Farm
2015-09-22 13:30:00 81 68 69.4 2015-11-18 13:17:03 Pearl Creek Farm
2015-09-22 14:00:00 81 69 69.6 2015-11-18 13:17:03 Pearl Creek Farm
2015-09-22 14:30:00 82 69 70.8 2015-11-18 13:17:03 Pearl Creek Farm
2015-09-22 15:00:00 82 67 70.0 2015-11-18 13:17:03 Pearl Creek Farm
2015-09-22 15:30:00 82 68 70.4 2015-11-18 13:17:03 Pearl Creek Farm
2015-09-22 16:00:00 81 71 70.7 2015-11-18 13:17:03 Pearl Creek Farm
2015-09-22 16:30:00 82 69 70.6 2015-11-18 13:17:03 Pearl Creek Farm
2015-09-22 17:00:00 81 71 70.7 2015-11-18 13:17:03 Pearl Creek Farm
2015-09-22 17:30:00 81 73 71.3 2015-11-18 13:17:03 Pearl Creek Farm
2015-09-22 18:00:00 79 75 70.2 2015-11-18 13:17:03 Pearl Creek Farm
2015-09-22 18:30:00 78 79 70.8 2015-11-18 13:17:03 Pearl Creek Farm
2015-09-22 19:00:00 77 80 70.4 2015-11-18 13:17:03 Pearl Creek Farm
2015-09-22 19:30:00 75 82 69.1 2015-11-18 13:17:03 Pearl Creek Farm
2015-09-22 20:00:00 73 81 66.8 2015-11-18 13:17:03 Pearl Creek Farm
2015-09-22 20:30:00 72 85 67.1 2015-11-18 13:17:03 Pearl Creek Farm
2015-09-22 21:00:00 71 86 66.4 2015-11-18 13:17:03 Pearl Creek Farm
2015-09-22 21:30:00 70 86 65.6 2015-11-18 13:17:03 Pearl Creek Farm
2015-09-22 22:00:00 70 87 66.0 2015-11-18 13:17:03 Pearl Creek Farm
2015-09-22 22:30:00 69 87 65.0 2015-11-18 13:17:03 Pearl Creek Farm
2015-09-22 23:00:00 68 87 64.0 2015-11-18 13:17:03 Pearl Creek Farm
2015-09-22 23:30:00 67 88 63.2 2015-11-18 13:17:03 Pearl Creek Farm

A total of 48 rows are displayed.